User: anonymous   Login
Location: Stoke Bliss
(52.2667°N, 2.5167°W)
Time: 01:52:46
(UTC+00:00)
Language:

Meteor 2-4 Rocket - Orbit

View from above orbital plane
View from above orbital plane
View from above satellite
View from above satellite

Ground track
Ground track

The orbit data is extracted from the following two-line orbital elements,

1 11289U 79021B   21136.54788855 -.00000018  00000-0 -16917-4 0  9992
2 11289  81.2483 209.5979 0076283 137.1046 223.6111 14.11620098172231
Epoch (UTC): 16 May 2021 13:08:57
Eccentricity: 0.0076283
inclination: 81.2483°
perigee height: 798 km
apogee height: 909 km
right ascension of ascending node: 209.5979°
argument of perigee: 137.1046°
revolutions per day: 14.11620098
mean anomaly at epoch: 223.6111°
orbit number at epoch: 17223

The dashed part of the orbit path shows where the satellite is in the earth's shadow,  

DLR